MPEC 2004-F86 : 2004 FG29

The following Minor Planet Electronic Circular may be linked-to from your own Web pages, but must not otherwise be redistributed electronically.


Read MPEC 2004-F85 Read MPEC 2004-F87


M.P.E.C. 2004-F86                                Issued 2004 Mar. 30, 13:16 UT

     The Minor Planet Electronic Circulars contain information on unusual
         minor planets and routine data on comets.  They are published
   on behalf of Commission 20 of the International Astronomical Union by the
          Minor Planet Center, Smithsonian Astrophysical Observatory,
                          Cambridge, MA 02138, U.S.A.

         Supported in part by the Steven and Michele Kirsch Foundation
             Prepared using the Tamkin Foundation Computer Network

                              MPC@CFA.HARVARD.EDU
          URL http://cfa-www.harvard.edu/iau/mpc.html  ISSN 1523-6714

                                   2004 FG29

Observations:
     K04F29G* C2004 03 29.38910 13 07 19.86 +03 58 47.6          19.5   EF086704
     K04F29G  C2004 03 29.39979 13 07 10.72 +04 02 07.4          19.6   EF086704
     K04F29G  C2004 03 29.41057 13 07 01.53 +04 05 29.9          19.8   EF086704
     K04F29G  C2004 03 29.42115 13 06 52.45 +04 08 49.5          19.3   EF086704
     K04F29G  C2004 03 29.97994 12 58 47.94 +07 27 56.5          19.2 R EF086J95
     K04F29G  C2004 03 29.99232 12 58 34.45 +07 32 57.4          19.2 R EF086J95
     K04F29G  C2004 03 30.28284 12 53 11.98 +09 40 47.7          19.4 R EF086649
     K04F29G  C2004 03 30.28426 12 53 10.16 +09 41 27.6          19.4 R EF086649
     K04F29G  C2004 03 30.28589 12 53 08.08 +09 42 14.2          19.3 R EF086649
     K04F29G 5C2004 03 30.41927 12 50 15.97 +10 47 04.6          19.0 R EF086673
     K04F29G 5C2004 03 30.42361 12 50 09.84 +10 49 16.3          19.5 R EF086673
     K04F29G 5C2004 03 30.42593 12 50 06.72 +10 50 25.5          19.0 R EF086673
     K04F29G 5C2004 03 30.42963 12 50 01.61 +10 52 16.1          18.5 R EF086673
     K04F29G 5C2004 03 30.43675 12 49 51.79 +10 55 50.2          19.0 R EF086673
     K04F29G 5C2004 03 30.44236 12 49 43.95 +10 58 37.8          19.5 R EF086673

Observer details:
649 Powell Observatory, Louisburg.  Observer R. Trentman.  0.75-m Newtonian
    + CCD.
673 Table Mountain Observatory, Wrightwood.  Observer J. Young.  0.6-m
    reflector + CCD.
704 Lincoln Laboratory ETS, New Mexico.  Observers M. Blythe, F. Shelly,
    M. Bezpalko, R. Huber, L. Manguso, D. Torres, R. Kracke, M. McCleary,
    H. Stange, A. Milner.  Measurers J. Stuart, R. Sayer, J. Evans, J. Kommers.
    1.0-m f/2.15 reflector + CCD.
J95 Great Shefford.  Observer P. Birtwhistle.  0.30-m f/6.3 Schmidt-Cassegrain
    + CCD.

Orbital elements:
2004 FG29
Epoch 2004 July 14.0 TT = JDT 2453200.5                 MPC
M  43.07990              (2000.0)            P               Q
n   1.19709224     Peri.  141.99107     +0.82318616     +0.56775978
a   0.8784512      Node   183.42093     -0.53478743     +0.77318320
e   0.4926548      Incl.    3.51571     -0.19070122     +0.28255366
P   0.82           H   26.4           G   0.15           U   9
Residuals in seconds of arc
040329 704  0.9+  0.0     040329 J95  0.9+  0.1-    040330 673  1.3-  0.9+
040329 704  0.0   0.1-    040330 649  0.9-  0.8-    040330 673  0.0   0.7+
040329 704  0.2-  0.1-    040330 649  0.7-  0.8-    040330 673  0.2+  0.4+
040329 704  1.3-  0.1-    040330 649  0.3-  0.0     040330 673  1.0+  0.6+
040329 J95  0.8+  1.3+    040330 673  0.6+  1.0-    040330 673  0.3+  0.8-

Ephemeris:
2004 FG29                a,e,i = 0.88, 0.49, 4                   q = 0.4457
Date    TT    R. A. (2000) Decl.     Delta      r     Elong.  Phase     V
2004 03 26    13 31.91   -06 02.5    0.062    1.057   161.8    17.1    21.4
2004 03 27    13 27.26   -04 07.6    0.054    1.050   164.2    15.0    21.0
2004 03 28    13 20.96   -01 31.9    0.046    1.043   166.7    12.8    20.6
2004 03 29    13 12.01   +02 08.7    0.038    1.036   168.5    11.1    20.1
2004 03 30    12 58.42   +07 39.1    0.031    1.029   167.2    12.5    19.6
2004 03 31    12 35.69   +16 25.6    0.024    1.021   159.4    20.2    19.3
2004 04 01    11 51.63   +30 47.8    0.018    1.014   142.6    36.8    19.2
2004 04 02    10 08.85   +50 05.1    0.016    1.006   115.4    63.8    19.6
2004 04 03    06 52.88   +58 20.3    0.017    0.999    85.9    93.2    20.9
2004 04 04    04 38.90   +51 28.9    0.022    0.991    65.1   113.8    22.5
2004 04 05    03 42.73   +44 01.7    0.029    0.983    52.4   126.3    24.0

Timothy B. Spahr             (C) Copyright 2004 MPC           M.P.E.C. 2004-F86

Read MPEC 2004-F85 Read MPEC 2004-F87


Our Web policy. Index to the CBAT/MPC/ICQ pages.

MPC